[[{"header":{"parameterUnit":"m.s-1","parameterCategory":1,"la1":30.2992,"la2":30.254,"lo1":-89.0895,"lo2":-89.0443,"dy":0.0025,"dx":0.0025,"nx":19,"ny":19,"refTime":"2026-05-06T03:00:00:Z","depth":0,"parameterNumber":2,"parameterNumberName":"U-component_of_WINDS"},"data":[0,0,0,-0.4749,-0.475,-0.4813,-0.4813,-0.4878,-0.4878,0,0,0,0,0,0,0,0,0,0,0,-0.4721,-0.4721,-0.4749,-0.4751,-0.4813,-0.4813,-0.4878,-0.4878,0,0,0,0,0,0,0,0,0,0,0,-0.4721,-0.4721,-0.4721,-0.4751,-0.4813,-0.4813,-0.4878,-0.4836,0,0,0,0,0,0,0,0,0,0,-0.4778,-0.4742,-0.4721,-0.4721,-0.4751,-0.4813,-0.4813,-0.4834,-0.4839,-0.4843,0,-0.4843,0,-0.4861,-0.4882,-0.4882,0,0,0,-0.4758,-0.4738,-0.4764,-0.4721,-0.4752,-0.4813,-0.4787,-0.4837,-0.4842,-0.4848,-0.4844,-0.4847,-0.4863,-0.4882,-0.4882,-0.4878,-0.4877,0,0,-0.4755,-0.4727,-0.4761,-0.4767,-0.4755,-0.4785,-0.4789,-0.484,-0.4834,-0.4844,-0.4849,-0.4864,-0.4882,-0.4883,-0.4878,-0.4878,0,0,0,-0.474,-0.4724,-0.4749,-0.4764,-0.4776,-0.4786,-0.4791,-0.4832,-0.4842,-0.485,-0.4864,-0.4882,-0.4883,-0.4879,-0.4878,-0.4831,0,0,0,-0.4738,-0.4715,-0.4747,-0.4731,-0.4775,-0.4804,-0.4781,-0.4839,-0.4845,-0.4864,-0.4882,-0.4884,-0.4879,-0.4878,-0.4833,-0.4813,0,0,0,-0.472,-0.4713,-0.4719,-0.4729,-0.4755,-0.4804,-0.4818,-0.4841,-0.4854,-0.4882,-0.4884,-0.4879,-0.4878,-0.4835,-0.4817,-0.4803,0,0,0,-0.4693,-0.4677,-0.4718,-0.4705,-0.4754,-0.4775,-0.4818,-0.4835,-0.4853,-0.4883,-0.4879,-0.4878,-0.4836,-0.4819,-0.4805,-0.4787,-0.4776,0,0,-0.4657,-0.4671,-0.4666,-0.4705,-0.471,-0.4767,-0.4767,-0.4811,-0.484,-0.4864,-0.4864,-0.4832,-0.4817,-0.4804,-0.473,-0.4721,0,0,0,-0.4645,-0.4641,-0.4649,-0.4664,-0.4697,-0.4724,-0.477,-0.4787,-0.4808,-0.4846,-0.4826,-0.4817,-0.4811,-0.4803,-0.4796,-0.4792,-0.4873,-0.4874,-0.4874,-0.4553,-0.459,-0.4584,-0.4629,-0.4644,-0.4692,-0.4708,-0.4738,-0.4772,-0.4767,-0.4774,-0.4724,-0.4714,-0.4709,-0.4704,-0.4768,-0.4767,-0.4767,-0.4767,-0.4502,-0.4502,-0.4547,-0.4557,-0.4597,-0.4606,-0.4653,-0.4677,-0.4692,-0.4722,-0.4718,-0.4747,-0.4698,-0.4696,-0.4764,-0.4765,-0.4765,-0.4765,-0.4765,-0.4445,-0.4451,-0.4471,-0.4498,-0.4514,-0.4561,-0.4573,-0.461,-0.4644,-0.464,-0.4652,-0.4653,-0.4657,-0.4643,-0.4643,-0.4643,-0.4643,-0.4643,-0.4643,-0.4377,-0.4401,-0.4406,-0.444,-0.4455,-0.4479,-0.4528,-0.4544,-0.4572,-0.4597,-0.4598,-0.4632,-0.4687,-0.4699,-0.464,-0.4641,-0.4641,-0.4641,-0.4641,-0.431,-0.4331,-0.4339,-0.4354,-0.4396,-0.441,-0.4457,-0.4487,-0.4506,-0.451,-0.4546,-0.4581,-0.4599,-0.4605,-0.4615,-0.4538,-0.4538,-0.4538,-0.4538,-0.4262,-0.4274,-0.429,-0.4312,-0.4337,-0.438,-0.4388,-0.4427,-0.447,-0.4484,-0.4501,-0.4518,-0.4523,-0.4538,-0.4545,-0.4556,-0.4465,-0.4465,-0.4465,-0.4223,-0.4239,-0.4239,-0.428,-0.4316,-0.4346,-0.4355,-0.4379,-0.4433,-0.4463,-0.4496,-0.4499,-0.4528,-0.4535,-0.4565,-0.4575,-0.4595,0,0]},{"header":{"parameterUnit":"m.s-1","parameterCategory":1,"la1":30.2992,"la2":30.254,"lo1":-89.0895,"lo2":-89.0443,"dy":0.0025,"dx":0.0025,"nx":19,"ny":19,"refTime":"2026-05-06T03:00:00:Z","depth":0,"parameterNumber":3,"parameterNumberName":"V-component_of_WINDS"},"data":[0,0,0,7.9229,7.9232,7.9372,7.9373,7.9555,7.9557,0,0,0,0,0,0,0,0,0,0,0,7.9194,7.9196,7.9229,7.9233,7.9372,7.9373,7.9555,7.9557,0,0,0,0,0,0,0,0,0,0,0,7.9193,7.9195,7.9197,7.9233,7.9372,7.9373,7.9555,7.9447,0,0,0,0,0,0,0,0,0,0,7.931,7.9285,7.9195,7.9197,7.9234,7.9372,7.9373,7.9441,7.9453,7.9495,0,7.9537,0,7.9551,7.957,7.9571,0,0,0,7.9226,7.9275,7.9307,7.9197,7.9235,7.9372,7.9307,7.9448,7.9462,7.9511,7.954,7.9546,7.9554,7.9571,7.9572,7.9845,7.9846,0,0,7.9219,7.9221,7.9298,7.9317,7.93,7.9303,7.9312,7.9456,7.9486,7.9541,7.9551,7.9557,7.9572,7.9574,7.9843,7.9845,0,0,0,7.9201,7.9216,7.9245,7.9309,7.9335,7.9307,7.9317,7.9479,7.9489,7.9553,7.9559,7.9573,7.9576,7.9841,7.9844,7.9927,0,0,0,7.9196,7.9206,7.9242,7.9245,7.9332,7.941,7.9338,7.9479,7.9495,7.9558,7.9574,7.9578,7.984,7.9843,7.9921,7.9965,0,0,0,7.9182,7.9204,7.9227,7.9245,7.9306,7.9407,7.9425,7.9482,7.95,7.9571,7.9578,7.9839,7.9842,7.9916,7.9956,8.004,0,0,0,7.9168,7.9295,7.9228,7.9373,7.9305,7.9459,7.9424,7.9537,7.9608,7.9575,7.984,7.9844,7.9914,7.9951,8.0034,8.0111,8.0144,0,0,7.9329,7.9314,7.9399,7.9344,7.9512,7.9437,7.9616,7.9675,7.9676,7.9787,7.9794,7.9923,7.9956,8.0038,8.0323,8.0349,0,0,0,7.9451,7.9512,7.9556,7.9627,7.9679,7.9727,7.976,7.9782,7.9878,7.9736,7.9975,7.9994,8.0042,8.0079,8.0101,8.0143,7.9861,7.986,7.986,7.9682,7.9682,7.9823,7.9841,7.9909,7.9945,7.9999,8.0035,8.0009,8.0067,8.01,8.0273,8.0316,8.0333,8.0376,8.0139,8.014,8.014,8.014,7.9919,8.0006,7.9977,8.0103,8.0101,8.0205,8.0243,8.0223,8.0318,8.0247,8.029,8.0213,8.0361,8.0399,8.0147,8.0146,8.0145,8.0144,8.0144,8.0071,8.0113,8.0142,8.0247,8.0327,8.0338,8.0434,8.0426,8.042,8.0462,8.0497,8.0496,8.0494,8.0479,8.048,8.0481,8.0481,8.0482,8.0482,8.0217,8.0248,8.0331,8.0401,8.0447,8.0507,8.0545,8.0588,8.0635,8.0622,8.0622,8.0593,8.0377,8.0323,8.0491,8.049,8.0488,8.0487,8.0487,8.0459,8.0405,8.0534,8.0581,8.0663,8.0744,8.0735,8.0826,8.086,8.0907,8.087,8.0711,8.0693,8.0676,8.0631,8.0869,8.0869,8.0869,8.0869,8.0588,8.058,8.0713,8.0789,8.0862,8.0869,8.1012,8.1043,8.1065,8.1087,8.1051,8.0992,8.0974,8.0967,8.0943,8.0901,8.1202,8.1203,8.1203,8.0737,8.0737,8.0862,8.089,8.0954,8.1008,8.1143,8.1229,8.1242,8.1216,8.1103,8.1089,8.0993,8.0962,8.0933,8.0896,8.082,0,0]}]]